カタログに戻る

RASSVET-3 22

運用中PO
NORAD 100088·PAYLOAD·🇷🇺 Russia

打ち上げ Jul 19, 2026 から Plesetsk Cosmodrome

Loading…

次のパス (今後24時間)

TLE

最新Source: Space-Track

元期: Sep 14, 2026, 13:29 UTC

1 A0088U 26165F   26257.56190566 -.00275143  00000-0 -55265-2 0  9995
2 A0088  82.2997 168.1463 0007503 167.2989 192.8451 15.47632033  8924

AllMySatでRASSVET-3 22をリアルタイム追跡

Download on the App Store